N257MC KSAN-KLAS

Flight info

Callsign N257MC
Flight time 1h 2m
Altitude 29000
Route PADRZ2 CHKNN SEBBY YELAH MISEN RNDRZ4
Aircraft SF50/L-SDGRWY/L

Departure

Time 2026-05-04 02:47
Airport San Diego International Airport (KSAN)

Arrival

Time 2026-05-04 03:50
Airport Harry Reid International Airport (KLAS)
Time Latitude Longitude Altitude Speed Heading
2026-05-04 02:33 32.73331 -117.17801 15 ft 0 kts 18°
2026-05-04 02:39 32.73339 -117.17820 22 ft 0 kts 231°
2026-05-04 02:40 32.73315 -117.17838 19 ft 3 kts 289°
2026-05-04 02:40 32.73353 -117.17940 19 ft 10 kts 232°
2026-05-04 02:40 32.73300 -117.17969 19 ft 8 kts 198°
2026-05-04 02:40 32.73246 -117.17960 17 ft 13 kts 141°
2026-05-04 02:41 32.73204 -117.17874 17 ft 10 kts 106°
2026-05-04 02:41 32.73184 -117.17784 18 ft 13 kts 105°
2026-05-04 02:41 32.73159 -117.17681 18 ft 13 kts 106°
2026-05-04 02:41 32.73134 -117.17592 17 ft 9 kts 126°
2026-05-04 02:42 32.73106 -117.17557 17 ft 0 kts 143°
2026-05-04 02:46 32.73102 -117.17553 17 ft 8 kts 143°
2026-05-04 02:46 32.73020 -117.17566 18 ft 14 kts 269°
2026-05-04 02:46 32.73024 -117.17599 17 ft 0 kts 279°
2026-05-04 02:47 32.73079 -117.17828 16 ft 68 kts 285°
2026-05-04 02:47 32.73262 -117.18583 275 ft 110 kts 286°
2026-05-04 02:47 32.73511 -117.19503 923 ft 128 kts 286°
2026-05-04 02:48 32.73738 -117.20177 1408 ft 138 kts 296°
2026-05-04 02:48 32.74339 -117.21173 1908 ft 156 kts 303°
2026-05-04 02:48 32.74954 -117.22238 2653 ft 157 kts 300°
2026-05-04 02:48 32.75541 -117.23346 3381 ft 159 kts 299°
2026-05-04 02:49 32.76128 -117.24473 4094 ft 162 kts 299°
2026-05-04 02:49 32.76718 -117.25618 4827 ft 163 kts 299°
2026-05-04 02:49 32.77314 -117.26774 5500 ft 165 kts 298°
2026-05-04 02:49 32.77916 -117.27947 6170 ft 167 kts 298°
2026-05-04 02:50 32.78529 -117.29135 6791 ft 169 kts 297°
2026-05-04 02:50 32.79146 -117.30337 7382 ft 172 kts 297°
2026-05-04 02:50 32.79774 -117.31558 7955 ft 174 kts 297°
2026-05-04 02:50 32.80512 -117.32725 8525 ft 178 kts 302°
2026-05-04 02:51 32.81275 -117.33895 9119 ft 180 kts 301°
2026-05-04 02:51 32.82044 -117.35082 9689 ft 183 kts 301°
2026-05-04 02:51 32.82821 -117.36288 10251 ft 184 kts 300°
2026-05-04 02:51 32.83604 -117.37501 10770 ft 186 kts 300°
2026-05-04 02:52 32.84395 -117.38727 11301 ft 187 kts 300°
2026-05-04 02:52 32.85190 -117.39957 11845 ft 188 kts 300°
2026-05-04 02:52 32.85988 -117.41197 12372 ft 190 kts 300°
2026-05-04 02:52 32.86794 -117.42446 12898 ft 191 kts 299°
2026-05-04 02:53 32.87602 -117.43703 13404 ft 192 kts 299°
2026-05-04 02:53 32.88421 -117.44973 13904 ft 194 kts 299°
2026-05-04 02:53 32.89240 -117.46246 14363 ft 194 kts 298°
2026-05-04 02:53 32.90059 -117.47515 14842 ft 193 kts 298°
2026-05-04 02:54 32.90860 -117.48761 15314 ft 191 kts 297°
2026-05-04 02:54 32.91677 -117.50031 15777 ft 190 kts 296°
2026-05-04 02:54 32.92469 -117.51265 16228 ft 190 kts 296°
2026-05-04 02:54 32.93270 -117.52508 16673 ft 189 kts 295°
2026-05-04 02:55 32.95155 -117.54744 17492 ft 215 kts 322°
2026-05-04 02:55 32.96669 -117.55165 17877 ft 228 kts 335°
2026-05-04 02:55 32.98238 -117.55473 18260 ft 229 kts 335°
2026-05-04 02:56 32.99814 -117.55782 18590 ft 230 kts 335°
2026-05-04 02:56 33.01395 -117.56094 18911 ft 231 kts 334°
2026-05-04 02:56 33.02984 -117.56411 19245 ft 232 kts 334°
2026-05-04 02:56 33.04577 -117.56727 19555 ft 233 kts 334°
2026-05-04 02:57 33.06181 -117.57045 19870 ft 234 kts 334°
2026-05-04 02:57 33.07790 -117.57365 20183 ft 235 kts 334°
2026-05-04 02:57 33.09400 -117.57684 20491 ft 235 kts 334°
2026-05-04 02:57 33.11022 -117.58007 20798 ft 236 kts 334°
2026-05-04 02:58 33.12640 -117.58327 21113 ft 236 kts 334°
2026-05-04 02:58 33.14258 -117.58647 21449 ft 235 kts 333°
2026-05-04 02:58 33.15872 -117.58970 21788 ft 234 kts 333°
2026-05-04 02:58 33.17477 -117.59288 22133 ft 233 kts 333°
2026-05-04 02:59 33.19075 -117.59607 22482 ft 232 kts 332°
2026-05-04 02:59 33.20669 -117.59924 22826 ft 232 kts 332°
2026-05-04 02:59 33.22256 -117.60240 23172 ft 231 kts 332°
2026-05-04 02:59 33.23834 -117.60555 23522 ft 230 kts 332°
2026-05-04 03:00 33.25413 -117.60869 23821 ft 229 kts 331°
2026-05-04 03:00 33.26979 -117.61182 24131 ft 228 kts 331°
2026-05-04 03:00 33.28540 -117.61492 24427 ft 227 kts 330°
2026-05-04 03:00 33.30091 -117.61803 24714 ft 225 kts 330°
2026-05-04 03:01 33.31636 -117.62110 25008 ft 224 kts 329°
2026-05-04 03:01 33.33169 -117.62418 25301 ft 223 kts 329°
2026-05-04 03:01 33.34697 -117.62722 25595 ft 222 kts 328°
2026-05-04 03:01 33.36215 -117.63026 25890 ft 220 kts 328°
2026-05-04 03:02 33.37726 -117.63328 26182 ft 219 kts 327°
2026-05-04 03:02 33.39229 -117.63628 26470 ft 218 kts 327°
2026-05-04 03:02 33.40723 -117.63928 26762 ft 217 kts 326°
2026-05-04 03:02 33.42210 -117.64224 27054 ft 216 kts 326°
2026-05-04 03:03 33.43684 -117.64521 27345 ft 215 kts 325°
2026-05-04 03:03 33.45157 -117.64815 27642 ft 214 kts 324°
2026-05-04 03:03 33.46615 -117.65108 27950 ft 212 kts 324°
2026-05-04 03:03 33.48067 -117.65396 28317 ft 211 kts 323°
2026-05-04 03:04 33.49514 -117.65693 28599 ft 212 kts 323°
2026-05-04 03:04 33.50974 -117.65986 28902 ft 212 kts 324°
2026-05-04 03:04 33.52455 -117.66294 28968 ft 222 kts 324°
2026-05-04 03:04 33.54024 -117.66622 28978 ft 235 kts 326°
2026-05-04 03:05 33.55672 -117.66945 28980 ft 244 kts 327°
2026-05-04 03:05 33.57374 -117.67281 28975 ft 251 kts 327°
2026-05-04 03:05 33.59121 -117.67631 28977 ft 257 kts 328°
2026-05-04 03:05 33.60906 -117.67987 28979 ft 263 kts 328°
2026-05-04 03:06 33.62724 -117.68353 28977 ft 268 kts 328°
2026-05-04 03:06 33.64557 -117.68721 28979 ft 273 kts 329°
2026-05-04 03:06 33.66455 -117.69105 28980 ft 279 kts 329°
2026-05-04 03:06 33.68391 -117.69494 28980 ft 285 kts 330°
2026-05-04 03:07 33.70358 -117.69887 28999 ft 288 kts 330°
2026-05-04 03:07 33.72350 -117.70286 28977 ft 292 kts 331°
2026-05-04 03:07 33.74367 -117.70695 28978 ft 296 kts 331°
2026-05-04 03:07 33.76402 -117.71105 28965 ft 298 kts 332°
2026-05-04 03:08 33.78458 -117.71518 28972 ft 300 kts 332°
2026-05-04 03:08 33.82595 -117.72353 28972 ft 303 kts 332°
2026-05-04 03:09 33.86769 -117.73199 28971 ft 305 kts 332°
2026-05-04 03:09 33.90967 -117.74046 28982 ft 307 kts 332°
2026-05-04 03:10 33.95194 -117.74905 28978 ft 310 kts 333°
2026-05-04 03:10 33.99456 -117.75767 28976 ft 311 kts 333°
2026-05-04 03:11 34.03851 -117.76226 28975 ft 331 kts 347°
2026-05-04 03:11 34.06190 -117.75843 28971 ft 347 kts 357°
2026-05-04 03:11 34.08541 -117.74970 28966 ft 363 kts
2026-05-04 03:11 34.10832 -117.73566 28964 ft 377 kts 20°
2026-05-04 03:12 34.12955 -117.71628 28956 ft 389 kts 33°
2026-05-04 03:12 34.14809 -117.69200 28960 ft 396 kts 44°
2026-05-04 03:12 34.16549 -117.66617 28962 ft 396 kts 44°
2026-05-04 03:13 34.20069 -117.61493 28967 ft 394 kts 45°
2026-05-04 03:13 34.23525 -117.56414 28948 ft 389 kts 45°
2026-05-04 03:14 34.26940 -117.51412 28914 ft 388 kts 44°
2026-05-04 03:14 34.30392 -117.46336 28894 ft 388 kts 45°
2026-05-04 03:15 34.33800 -117.41321 28891 ft 389 kts 45°
2026-05-04 03:15 34.37239 -117.36254 28887 ft 390 kts 45°
2026-05-04 03:16 34.40674 -117.31183 28851 ft 390 kts 45°
2026-05-04 03:16 34.44116 -117.26094 28836 ft 390 kts 45°
2026-05-04 03:17 34.47551 -117.21011 28871 ft 390 kts 45°
2026-05-04 03:17 34.50987 -117.15918 28815 ft 389 kts 45°
2026-05-04 03:18 34.54388 -117.10866 28809 ft 384 kts 45°
2026-05-04 03:18 34.57748 -117.05875 28786 ft 380 kts 46°
2026-05-04 03:19 34.61096 -117.00892 28787 ft 382 kts 45°
2026-05-04 03:19 34.64447 -116.95893 28780 ft 382 kts 46°
2026-05-04 03:20 34.67791 -116.90906 28785 ft 384 kts 46°
2026-05-04 03:20 34.71162 -116.85863 28787 ft 385 kts 46°
2026-05-04 03:21 34.74538 -116.80811 28804 ft 385 kts 46°
2026-05-04 03:21 34.77906 -116.75760 28804 ft 384 kts 46°
2026-05-04 03:22 34.81262 -116.70724 28805 ft 383 kts 46°
2026-05-04 03:22 34.84616 -116.65682 28798 ft 382 kts 46°
2026-05-04 03:22 34.86472 -116.63438 28779 ft 373 kts 32°
2026-05-04 03:23 34.88512 -116.61498 28781 ft 373 kts 31°
2026-05-04 03:23 34.92559 -116.57550 28616 ft 367 kts 31°
2026-05-04 03:24 34.96485 -116.53751 28647 ft 356 kts 30°
2026-05-04 03:24 35.00388 -116.49970 28749 ft 359 kts 31°
2026-05-04 03:25 35.04327 -116.46141 28745 ft 364 kts 31°
2026-05-04 03:25 35.08307 -116.42267 28741 ft 368 kts 31°
2026-05-04 03:26 35.12097 -116.37980 28738 ft 376 kts 41°
2026-05-04 03:26 35.13895 -116.35636 28603 ft 379 kts 40°
2026-05-04 03:26 35.15718 -116.33311 28171 ft 378 kts 40°
2026-05-04 03:26 35.17517 -116.30992 27672 ft 372 kts 41°
2026-05-04 03:27 35.19253 -116.28729 27194 ft 369 kts 41°
2026-05-04 03:27 35.21022 -116.26437 26706 ft 371 kts 41°
2026-05-04 03:27 35.22817 -116.24112 26195 ft 373 kts 43°
2026-05-04 03:27 35.24542 -116.21723 25716 ft 375 kts 44°
2026-05-04 03:28 35.26288 -116.19347 25213 ft 376 kts 43°
2026-05-04 03:28 35.28022 -116.16994 24727 ft 378 kts 44°
2026-05-04 03:28 35.29794 -116.14558 24213 ft 380 kts 44°
2026-05-04 03:28 35.31553 -116.12134 23730 ft 380 kts 44°
2026-05-04 03:29 35.33289 -116.09754 23208 ft 381 kts 44°
2026-05-04 03:29 35.35052 -116.07341 22675 ft 379 kts 45°
2026-05-04 03:29 35.36799 -116.04935 22171 ft 376 kts 45°
2026-05-04 03:29 35.38533 -116.02548 21675 ft 373 kts 45°
2026-05-04 03:30 35.40253 -116.00181 21202 ft 370 kts 46°
2026-05-04 03:30 35.41957 -115.97836 20715 ft 367 kts 46°
2026-05-04 03:30 35.43647 -115.95511 20231 ft 365 kts 46°
2026-05-04 03:30 35.45327 -115.93190 19744 ft 361 kts 47°
2026-05-04 03:31 35.46979 -115.90910 19267 ft 356 kts 47°
2026-05-04 03:31 35.48611 -115.88658 18812 ft 351 kts 48°
2026-05-04 03:31 35.50227 -115.86427 18347 ft 349 kts 48°
2026-05-04 03:31 35.51833 -115.84204 17857 ft 347 kts 49°
2026-05-04 03:32 35.53419 -115.82011 17613 ft 343 kts 49°
2026-05-04 03:32 35.55020 -115.79794 17206 ft 349 kts 49°
2026-05-04 03:32 35.56622 -115.77574 16743 ft 345 kts 49°
2026-05-04 03:32 35.58206 -115.75378 16294 ft 341 kts 49°
2026-05-04 03:33 35.59774 -115.73208 16059 ft 337 kts 49°
2026-05-04 03:33 35.61349 -115.71086 16057 ft 334 kts 48°
2026-05-04 03:33 35.62921 -115.68994 16057 ft 332 kts 49°
2026-05-04 03:33 35.64467 -115.66905 16057 ft 330 kts 49°
2026-05-04 03:34 35.66005 -115.64817 16059 ft 329 kts 49°
2026-05-04 03:34 35.67540 -115.62740 16053 ft 327 kts 49°
2026-05-04 03:34 35.69067 -115.60675 16053 ft 326 kts 49°
2026-05-04 03:34 35.70590 -115.58617 16044 ft 325 kts 49°
2026-05-04 03:35 35.72116 -115.56561 16021 ft 325 kts 47°
2026-05-04 03:35 35.73243 -115.55354 15995 ft 326 kts 37°
2026-05-04 03:35 35.75187 -115.53919 15967 ft 326 kts 29°
2026-05-04 03:35 35.77171 -115.52547 15918 ft 327 kts 30°
2026-05-04 03:36 35.79174 -115.51138 15589 ft 336 kts 30°
2026-05-04 03:36 35.81216 -115.49699 15152 ft 339 kts 30°
2026-05-04 03:36 35.83261 -115.48269 14705 ft 336 kts 31°
2026-05-04 03:36 35.85285 -115.46851 14257 ft 335 kts 31°
2026-05-04 03:37 35.87302 -115.45434 13815 ft 331 kts 32°
2026-05-04 03:37 35.89297 -115.44033 13355 ft 328 kts 32°
2026-05-04 03:37 35.91271 -115.42644 12947 ft 326 kts 32°
2026-05-04 03:37 35.93234 -115.41273 12670 ft 324 kts 31°
2026-05-04 03:38 35.95207 -115.39904 12381 ft 325 kts 31°
2026-05-04 03:38 35.97155 -115.38500 12080 ft 323 kts 35°
2026-05-04 03:38 35.98823 -115.36670 11793 ft 320 kts 50°
2026-05-04 03:38 36.00098 -115.34444 11495 ft 317 kts 64°
2026-05-04 03:39 36.00922 -115.31957 11227 ft 308 kts 77°
2026-05-04 03:39 36.01269 -115.29435 10957 ft 299 kts 90°
2026-05-04 03:39 36.01207 -115.26869 10696 ft 299 kts 98°
2026-05-04 03:39 36.01070 -115.24290 10434 ft 289 kts 97°
2026-05-04 03:40 36.00971 -115.21939 10187 ft 261 kts 98°
2026-05-04 03:40 36.00865 -115.19783 9962 ft 251 kts 99°
2026-05-04 03:40 36.00747 -115.17638 9745 ft 250 kts 98°
2026-05-04 03:40 36.00639 -115.15495 9515 ft 250 kts 98°
2026-05-04 03:41 36.00532 -115.13353 9289 ft 250 kts 98°
2026-05-04 03:41 36.00425 -115.11211 9066 ft 250 kts 98°
2026-05-04 03:41 36.00315 -115.09072 8841 ft 250 kts 98°
2026-05-04 03:41 36.00207 -115.06926 8613 ft 251 kts 98°
2026-05-04 03:42 36.00098 -115.04776 8385 ft 250 kts 99°
2026-05-04 03:42 35.99986 -115.02651 8162 ft 249 kts 98°
2026-05-04 03:42 35.99909 -115.00510 7875 ft 250 kts 95°
2026-05-04 03:42 35.99907 -114.98362 7534 ft 250 kts 96°
2026-05-04 03:43 35.99896 -114.96219 7217 ft 248 kts 96°
2026-05-04 03:43 35.99925 -114.94126 6901 ft 242 kts 87°
2026-05-04 03:43 36.00613 -114.92204 6589 ft 250 kts 58°
2026-05-04 03:43 36.01913 -114.90781 6276 ft 252 kts 29°
2026-05-04 03:44 36.03551 -114.90225 5947 ft 238 kts 360°
2026-05-04 03:44 36.05099 -114.90572 5646 ft 218 kts 332°
2026-05-04 03:44 36.06286 -114.91555 5358 ft 198 kts 307°
2026-05-04 03:44 36.07029 -114.92855 5105 ft 173 kts 286°
2026-05-04 03:45 36.07297 -114.94183 4870 ft 148 kts 264°
2026-05-04 03:45 36.07347 -114.95351 4692 ft 126 kts 262°
2026-05-04 03:45 36.07362 -114.96411 4525 ft 124 kts 260°
2026-05-04 03:45 36.07373 -114.97504 4368 ft 129 kts 261°
2026-05-04 03:46 36.07375 -114.98608 4205 ft 128 kts 260°
2026-05-04 03:46 36.07371 -114.99735 4038 ft 135 kts 261°
2026-05-04 03:46 36.07374 -115.00925 3870 ft 140 kts 263°
2026-05-04 03:46 36.07374 -115.02089 3695 ft 129 kts 266°
2026-05-04 03:47 36.07368 -115.03181 3528 ft 129 kts 267°
2026-05-04 03:47 36.07373 -115.04265 3376 ft 120 kts 267°
2026-05-04 03:47 36.07375 -115.05179 3238 ft 99 kts 265°
2026-05-04 03:47 36.07367 -115.06091 3134 ft 111 kts 264°
2026-05-04 03:48 36.07371 -115.07048 2992 ft 115 kts 264°
2026-05-04 03:48 36.07366 -115.08026 2843 ft 108 kts 265°
2026-05-04 03:48 36.07394 -115.08932 2702 ft 103 kts 264°
2026-05-04 03:48 36.07428 -115.09769 2601 ft 91 kts 259°
2026-05-04 03:49 36.07392 -115.10551 2485 ft 93 kts 258°
2026-05-04 03:49 36.07365 -115.11374 2346 ft 100 kts 262°
2026-05-04 03:49 36.07352 -115.12247 2211 ft 104 kts 268°
2026-05-04 03:49 36.07357 -115.13128 2093 ft 94 kts 270°
2026-05-04 03:50 36.07355 -115.13809 2086 ft 66 kts 270°
2026-05-04 03:50 36.07366 -115.14248 2104 ft 29 kts 275°
2026-05-04 03:50 36.07409 -115.14449 2112 ft 22 kts 298°
2026-05-04 03:50 36.07477 -115.14591 2111 ft 4 kts 300°
2026-05-04 03:51 36.07478 -115.14592 2111 ft 0 kts 300°
2026-05-04 03:51 36.07514 -115.14641 2111 ft 21 kts 335°
2026-05-04 03:51 36.07644 -115.14678 2109 ft 21 kts 305°
2026-05-04 03:51 36.07648 -115.14836 2112 ft 16 kts 267°
2026-05-04 03:52 36.07644 -115.14991 2119 ft 20 kts 269°
2026-05-04 03:52 36.07642 -115.15184 2126 ft 26 kts 269°
2026-05-04 03:52 36.07641 -115.15432 2131 ft 31 kts 271°
2026-05-04 03:52 36.07641 -115.15687 2140 ft 27 kts 270°
2026-05-04 03:53 36.07641 -115.15902 2143 ft 22 kts 270°
2026-05-04 03:53 36.07640 -115.16070 2150 ft 18 kts 270°
2026-05-04 03:53 36.07640 -115.16247 2154 ft 24 kts 269°
2026-05-04 03:53 36.07638 -115.16504 2152 ft 34 kts 269°
2026-05-04 03:54 36.07641 -115.16795 2154 ft 32 kts 270°
2026-05-04 03:54 36.07642 -115.17048 2158 ft 19 kts 270°
2026-05-04 03:54 36.07718 -115.17116 2158 ft 15 kts
2026-05-04 03:54 36.07824 -115.17108 2157 ft 15 kts 10°
2026-05-04 03:55 36.07920 -115.17057 2156 ft 15 kts 24°
2026-05-04 03:55 36.08023 -115.17005 2151 ft 16 kts
2026-05-04 03:55 36.08088 -115.17060 2155 ft 5 kts 302°
2026-05-04 03:55 36.08092 -115.17079 2156 ft 0 kts 243°
2026-05-04 03:56 36.08071 -115.17083 2157 ft 4 kts 177°
2026-05-04 03:56 36.08064 -115.17082 2157 ft 0 kts 177°